| time (UTC) | temp F | wind direction | speed knots | gust knots | rain 1hr in | rain 24hr in | rain mn in | humidity % | barometer mb |
| 20260903134628 | 55 | 70 | 1.7 | 3.5 | 0.00 | 0.00 | 0.00 | 65 | 1006.3 |
| 20260903133029 | 54 | 72 | 1.7 | 3.5 | 0.00 | 0.00 | 0.00 | 69 | 1006.1 |
| 20260903131509 | 54 | 58 | 0.0 | 1.7 | 0.00 | 0.00 | 0.00 | 71 | 1006.1 |
| 20260903130015 | 54 | 58 | 1.7 | 3.5 | 0.00 | 0.00 | 0.00 | 72 | 1006.0 |
| 20260903124602 | 54 | 57 | 0.0 | 0.0 | 0.00 | 0.00 | 0.00 | 70 | 1005.7 |
| 20260903123002 | 54 | 57 | 0.0 | 0.9 | 0.00 | 0.00 | 0.00 | 72 | 1005.6 |
| 20260903121502 | 54 | 57 | 0.0 | 0.9 | 0.00 | 0.00 | 0.00 | 74 | 1005.6 |
| 20260903120001 | 54 | 57 | 0.0 | 0.9 | 0.00 | 0.00 | 0.00 | 73 | 1005.3 |
| 20260903114558 | 54 | 57 | 0.0 | 0.0 | 0.00 | 0.00 | 0.00 | 73 | 1005.2 |
| 20260903113058 | 55 | 57 | 1.7 | 3.5 | 0.00 | 0.00 | 0.00 | 73 | 1005.1 |
| 20260903111553 | 55 | 57 | 0.9 | 1.7 | 0.00 | 0.00 | 0.00 | 72 | 1004.9 |
| 20260903110055 | 56 | 57 | 0.0 | 2.6 | 0.00 | 0.00 | 0.00 | 71 | 1004.9 |
| 20260903104549 | 56 | 57 | 0.0 | 0.9 | 0.00 | 0.00 | 0.00 | 72 | 1004.7 |
| 20260903103046 | 57 | 57 | 0.0 | 0.9 | 0.00 | 0.00 | 0.00 | 72 | 1004.6 |
| 20260903101543 | 57 | 57 | 0.9 | 2.6 | 0.00 | 0.00 | 0.00 | 64 | 1004.5 |
| 20260903100041 | 58 | 57 | 0.0 | 1.7 | 0.00 | 0.00 | 0.00 | 63 | 1004.4 |
| 20260903094547 | 59 | 57 | 0.0 | 0.0 | 0.00 | 0.00 | 0.00 | 60 | 1004.4 |
| 20260903093036 | 59 | 57 | 0.0 | 0.0 | 0.00 | 0.00 | 0.00 | 59 | 1004.3 |
| 20260903091606 | 59 | 57 | 0.0 | 0.0 | 0.00 | 0.00 | 0.00 | 61 | 1004.1 |
| 20260903090048 | 60 | 57 | 0.0 | 1.7 | 0.00 | 0.00 | 0.00 | 61 | 1004.0 |
| 20260903084547 | 61 | 57 | 0.0 | 2.6 | 0.00 | 0.00 | 0.00 | 52 | 1003.8 |
| 20260903083041 | 62 | 57 | 0.0 | 0.0 | 0.00 | 0.00 | 0.00 | 52 | 1003.8 |
| 20260903081540 | 62 | 57 | 0.0 | 0.0 | 0.00 | 0.00 | 0.00 | 53 | 1003.7 |
| 20260903080043 | 63 | 57 | 0.0 | 2.6 | 0.00 | 0.00 | 0.00 | 50 | 1003.6 |
| 20260903074541 | 63 | 57 | 0.0 | 0.0 | 0.00 | 0.00 | 0.00 | 55 | 1003.4 |
| 20260903073031 | 64 | 57 | 0.0 | 2.6 | 0.00 | 0.00 | 0.00 | 56 | 1003.3 |
| 20260903071528 | 65 | 57 | 1.7 | 5.2 | 0.00 | 0.00 | 0.00 | 46 | 1003.2 |
| 20260903070024 | 67 | 33 | 0.0 | 0.0 | 0.00 | 0.00 | 0.00 | 41 | 1003.0 |
| 20260903064521 | 68 | 33 | 0.0 | 0.0 | 0.00 | 0.00 | 0.00 | 36 | 1002.9 |
| 20260903063022 | 69 | 33 | 0.0 | 0.0 | 0.00 | 0.00 | 0.00 | 38 | 1003.0 |
| 20260903061521 | 70 | 33 | 0.0 | 3.5 | 0.00 | 0.00 | 0.00 | 35 | 1002.9 |
| 20260903060013 | 74 | 5 | 2.6 | 7.0 | 0.00 | 0.00 | 0.00 | 30 | 1002.7 |
| 20260903054510 | 74 | 236 | 0.0 | 2.6 | 0.00 | 0.00 | 0.00 | 27 | 1002.6 |
| 20260903053008 | 74 | 198 | 1.7 | 5.2 | 0.00 | 0.00 | 0.00 | 26 | 1002.6 |
| 20260903051508 | 75 | 184 | 3.5 | 7.0 | 0.00 | 0.00 | 0.00 | 25 | 1002.7 |
| 20260903050009 | 75 | 186 | 3.5 | 6.1 | 0.00 | 0.00 | 0.00 | 26 | 1002.7 |
| 20260903044506 | 77 | 171 | 2.6 | 5.2 | 0.00 | 0.00 | 0.00 | 24 | 1002.7 |
| 20260903043012 | 79 | 201 | 2.6 | 7.0 | 0.00 | 0.00 | 0.00 | 22 | 1002.7 |
| 20260903041505 | 80 | 215 | 3.5 | 8.7 | 0.00 | 0.00 | 0.00 | 19 | 1002.7 |
| 20260903040008 | 81 | 223 | 5.2 | 9.6 | 0.00 | 0.00 | 0.00 | 18 | 1002.6 |
| 20260903034527 | 82 | 227 | 4.3 | 12.2 | 0.00 | 0.00 | 0.00 | 18 | 1002.3 |
| 20260903033026 | 82 | 207 | 5.2 | 9.6 | 0.00 | 0.00 | 0.00 | 17 | 1002.4 |
| 20260903031526 | 83 | 217 | 5.2 | 10.4 | 0.00 | 0.00 | 0.00 | 17 | 1002.2 |
| 20260903030026 | 83 | 234 | 6.1 | 14.8 | 0.00 | 0.00 | 0.00 | 17 | 1002.0 |
| 20260903024524 | 83 | 233 | 7.0 | 11.3 | 0.00 | 0.00 | 0.00 | 19 | 1001.9 |
| 20260903023023 | 83 | 210 | 4.3 | 8.7 | 0.00 | 0.00 | 0.00 | 20 | 1001.7 |
| 20260903021523 | 84 | 217 | 5.2 | 8.7 | 0.00 | 0.00 | 0.00 | 20 | 1001.6 |
| 20260903020022 | 85 | 212 | 3.5 | 10.4 | 0.00 | 0.00 | 0.00 | 20 | 1001.4 |
| 20260903014521 | 85 | 230 | 5.2 | 10.4 | 0.00 | 0.00 | 0.00 | 19 | 1001.4 |
| 20260903013019 | 86 | 194 | 8.7 | 17.4 | 0.00 | 0.00 | 0.00 | 19 | 1001.5 |
| 20260903011519 | 87 | 213 | 9.6 | 15.6 | 0.00 | 0.00 | 0.00 | 19 | 1001.6 |
| 20260903010018 | 87 | 216 | 12.2 | 20.0 | 0.00 | 0.00 | 0.00 | 19 | 1001.6 |
| 20260903004522 | 88 | 248 | 10.4 | 19.1 | 0.00 | 0.00 | 0.00 | 20 | 1001.6 |
| 20260903003020 | 88 | 261 | 8.7 | 17.4 | 0.00 | 0.00 | 0.00 | 20 | 1001.6 |
| 20260903001519 | 89 | 214 | 11.3 | 21.7 | 0.00 | 0.00 | 0.00 | 18 | 1001.8 |
| 20260903000014 | 89 | 216 | 10.4 | 20.0 | 0.00 | 0.00 | 0.00 | 19 | 1001.9 |
| 20260902234512 | 89 | 242 | 12.2 | 23.5 | 0.00 | 0.00 | 0.00 | 18 | 1001.8 |
| 20260902233011 | 89 | 190 | 9.6 | 19.1 | 0.00 | 0.00 | 0.00 | 19 | 1001.8 |
| 20260902231512 | 89 | 255 | 8.7 | 18.2 | 0.00 | 0.00 | 0.00 | 22 | 1002.2 |
| 20260902230007 | 89 | 223 | 7.8 | 20.0 | 0.00 | 0.00 | 0.00 | 25 | 1002.4 |
| 20260902224505 | 88 | 198 | 7.8 | 21.7 | 0.00 | 0.00 | 0.00 | 24 | 1002.5 |
| 20260902223003 | 88 | 210 | 8.7 | 18.2 | 0.00 | 0.00 | 0.00 | 26 | 1002.7 |
| 20260902221607 | 87 | 205 | 7.0 | 12.2 | 0.00 | 0.00 | 0.00 | 29 | 1002.7 |
| 20260902214604 | 87 | 239 | 9.6 | 17.4 | 0.00 | 0.00 | 0.00 | 29 | 1003.0 |
| 20260902213056 | 88 | 245 | 7.0 | 18.2 | 0.00 | 0.00 | 0.00 | 30 | 1003.0 |
| 20260902211610 | 87 | 244 | 3.5 | 15.6 | 0.00 | 0.00 | 0.00 | 30 | 1003.2 |
| 20260902210115 | 87 | 255 | 7.0 | 20.0 | 0.00 | 0.00 | 0.00 | 29 | 1003.4 |
| 20260902204605 | 87 | 198 | 6.1 | 13.0 | 0.00 | 0.00 | 0.00 | 30 | 1003.9 |
| 20260902203057 | 87 | 206 | 7.8 | 17.4 | 0.00 | 0.00 | 0.00 | 32 | 1004.1 |
| 20260902201522 | 88 | 271 | 7.0 | 11.3 | 0.00 | 0.00 | 0.00 | 30 | 1004.2 |
| 20260902200036 | 87 | 146 | 7.0 | 14.8 | 0.00 | 0.00 | 0.00 | 32 | 1004.6 |
| 20260902194534 | 86 | 232 | 6.1 | 11.3 | 0.00 | 0.00 | 0.00 | 36 | 1004.9 |
| 20260902193028 | 84 | 214 | 7.0 | 13.9 | 0.00 | 0.00 | 0.00 | 40 | 1005.1 |
| 20260902191526 | 84 | 168 | 10.4 | 17.4 | 0.00 | 0.00 | 0.00 | 39 | 1005.5 |
| 20260902190035 | 84 | 171 | 8.7 | 17.4 | 0.00 | 0.00 | 0.00 | 39 | 1005.8 |
| 20260902184525 | 83 | 200 | 6.1 | 12.2 | 0.00 | 0.00 | 0.00 | 42 | 1006.1 |
| 20260902183017 | 80 | 130 | 8.7 | 13.0 | 0.00 | 0.00 | 0.00 | 46 | 1006.6 |
| 20260902181515 | 81 | 107 | 4.3 | 12.2 | 0.00 | 0.00 | 0.00 | 47 | 1007.0 |
| 20260902180011 | 80 | 163 | 5.2 | 13.9 | 0.00 | 0.00 | 0.00 | 48 | 1007.2 |
| 20260902174508 | 78 | 148 | 2.6 | 8.7 | 0.00 | 0.00 | 0.00 | 51 | 1007.5 |
| 20260902173005 | 76 | 145 | 0.9 | 7.8 | 0.00 | 0.00 | 0.00 | 52 | 1007.8 |
| 20260902171504 | 76 | 147 | 2.6 | 7.0 | 0.00 | 0.00 | 0.00 | 51 | 1008.0 |
| 20260902170005 | 76 | 196 | 2.6 | 7.0 | 0.00 | 0.00 | 0.00 | 53 | 1008.1 |
| 20260902164600 | 76 | 186 | 2.6 | 8.7 | 0.00 | 0.00 | 0.00 | 55 | 1008.0 |
| 20260902163056 | 73 | 159 | 3.5 | 8.7 | 0.00 | 0.00 | 0.00 | 57 | 1008.4 |
| 20260902161554 | 70 | 78 | 0.0 | 0.0 | 0.00 | 0.00 | 0.00 | 63 | 1008.3 |
| 20260902160010 | 69 | 78 | 0.0 | 0.9 | 0.00 | 0.00 | 0.00 | 66 | 1008.1 |
| 20260902154525 | 68 | 78 | 0.0 | 1.7 | 0.00 | 0.00 | 0.00 | 63 | 1008.0 |
| 20260902153106 | 68 | 78 | 2.6 | 7.8 | 0.00 | 0.00 | 0.00 | 64 | 1008.0 |
| 20260902151503 | 67 | 42 | 0.0 | 1.7 | 0.00 | 0.00 | 0.00 | 65 | 1008.2 |
| 20260902150028 | 65 | 37 | 0.0 | 0.0 | 0.00 | 0.00 | 0.00 | 70 | 1008.2 |
| 20260902144531 | 64 | 42 | 2.6 | 4.3 | 0.00 | 0.00 | 0.00 | 72 | 1008.0 |
| 20260902143006 | 63 | 346 | 0.0 | 2.6 | 0.00 | 0.00 | 0.00 | 75 | 1008.2 |
| 20260902141512 | 63 | 346 | 0.0 | 5.2 | 0.00 | 0.00 | 0.00 | 77 | 1007.9 |
| 20260902140028 | 63 | 327 | 3.5 | 4.3 | 0.00 | 0.00 | 0.00 | 78 | 1007.7 |